Other Public Products
Issued by NWS Grand Forks, ND

Home | Current Version | Previous Version | Graphics & Text | Print | Product List | Glossary On
Versions: 1 2 3 4 5 6 7 8 9 10 11 12 13 14 15 16 17 18 19 20 21 22 23 24 25 26 27 28 29 30 31 32 33 34 35 36 37 38 39 40 41 42 43 44 45 46 47 48 49 50
000
FPUS83 KFGF 200431
OPUFGF
PRAIRIE TO PINES WEATHER ROUNDUP
NATIONAL WEATHER SERVICE EASTERN NORTH DAKOTA/GRAND FORKS ND
1100 PM CDT FRI SEP 19 2014

 **SATELLITE DATA USED TO AUGMENT SKY COVER AT AUTOMATED STATIONS**
 *****  WEATHER ACROSS EASTERN NORTH DAKOTA  *****

CITY           SKY/WX    TMP DP  RH WIND       PRES   REMARKS
GRAND FORKS    MOCLDY    62  54  74 N14       29.66R
GRAND FORKS AF MOCLDY    62  56  81 N10       29.68R
GRAND CITY NWS   N/A     59 N/A N/A NW7         N/A
BUXTON           N/A     62  60  92 NW12        N/A
DEVILS LAKE    CLEAR     59  52  77 N6        29.73R
FARGO          MOCLDY    70  55  59 NW13      29.64R
WAHPETON ARPT  MOCLDY    64  54  68 W9        29.66R
$$

 *****  WEATHER ACROSS CENTRAL AND WESTERN NORTH DAKOTA  *****

CITY           SKY/WX    TMP DP  RH WIND       PRES   REMARKS
JAMESTOWN      MOCLDY    63  56  78 NW10      29.73R
BISMARCK       PTCLDY    65  53  65 NW6       29.81R
MINOT          CLEAR     62  53  72 W12       29.78R
MINOT AFB      PTCLDY    77  57  50 NW23      29.60R
GARRISON         N/A     53  50  89 NW8       29.81R
WILLISTON      MOCLDY    56  49  77 W7        29.83R
DICKINSON      CLEAR     56  48  74 W7        29.85R
HETTINGER      PTCLDY    53  47  79 W5        29.89R
$$

 *****  OTHER OBSERVATIONS NORTHEAST NORTH DAKOTA  *****

CITY           SKY/WX    TMP DP  RH WIND       PRES   REMARKS
WALHALLA         N/A     57  55  94 NW12      29.71R
LANGDON        MOCLDY    54  52  94 N5        29.73R
CAVALIER       FAIR      57  54  88 NW10G17   29.70R
GRAFTON        FAIR      59  54  82 N16       29.69R
CANDO          FAIR      54  52  94 N3        29.76R
FORT TOTTEN      N/A     61  57  88 N2        29.95S
ROLLA          FAIR      50  50 100 CALM      29.76S
RUGBY          FAIR      54  54 100 NW8       29.76R
 ***** THE ABOVE OBSERVATIONS ARE NON NWS ARE NOT QUALITY
        CONTROLLED AND MAY MIS-REPORT RAIN FOR SNOW...
$$

 *****  OTHER OBSERVATIONS SOUTHEAST NORTH DAKOTA *****

CITY           SKY/WX    TMP DP  RH WIND       PRES   REMARKS
COOPERSTOWN    NOT AVBL
VALLEY CITY    FAIR      64  59  82 NW13      29.72R
OAKES            N/A     64  55  72 W9        29.73R
GWINNER        CLEAR     66  54  63 W9        29.72R
SHEYENNE NWR     N/A     67  54  61 W7        29.95S
BUFFALO          N/A     66  53  61 NW9         N/A
WYNDMERE         N/A     70  54  56 W5          N/A
 ***** THE ABOVE OBSERVATIONS ARE NON NWS ARE NOT QUALITY
       CONTROLLED AND MAY MIS-REPORT RAIN FOR SNOW...
$$

  *****  WEATHER ACROSS NORTHERN MINNESOTA  *****

CITY           SKY/WX    TMP DP  RH WIND       PRES   REMARKS
FLAG ISLAND    CLOUDY    59  55  88 NW14      29.57S
WARROAD        CLOUDY    59  55  88 NW8       29.61R
ROSEAU         MOCLDY    59  54  82 NW6       29.62R
HALLOCK        MOCLDY    59  55  88 NW10      29.67R
THF RVR FALLS  CLOUDY    63  59  88 NW14      29.64R
HALSTAD          N/A     62  57  83 NW12        N/A
FOSSTON        PTCLDY    63  57  82 NW13G18   29.63R
BAUDETTE       CLOUDY    58  56  93 W3        29.57R
WASKISH        MOCLDY    63  61  94 CALM      29.58R
CROOKSTON      CLOUDY    63  57  82 N14       29.66R
$$
  *****  WEATHER ACROSS CENTRAL AND WEST MINNESOTA  *****

CITY           SKY/WX    TMP DP  RH WIND       PRES   REMARKS
BEMIDJI        PTCLDY    64  62  94 W7        29.59R
PARK RAPIDS    PTCLDY    65  63  93 SW9       29.61F
WADENA         PTCLDY    66  63  88 W6        29.63S
DETROIT LAKES  PTCLDY    70  55  60 W14       29.65R
MOORHEAD       MOCLDY    70  57  64 N14       29.66R
FERGUS FALLS   MOCLDY    66  57  72 W12       29.65S
ELBOW LAKE     FAIR      67  60  80 W12G18    29.65F
MORRIS MN      CLEAR     66 N/A N/A W8        29.65F
STAPLES        CLEAR     64  63  94 SW7       29.62F
WHEATON        PTCLDY    66  57  72 W7        29.69R
$$
  *****  WEATHER ELSEWHERE ACROSS MINNESOTA  *****

CITY           SKY/WX    TMP DP  RH WIND       PRES   REMARKS
DULUTH         MOCLDY    64  61  90 W12       29.63F FOG
INTRNTL FALLS  CLOUDY    60  59  96 CALM      29.56F
ELY            CLOUDY    61  59  94 CALM      29.60F
CLOQUET        CLOUDY    63  61  94 SW3       29.63F FOG
BRAINERD       FOG       59  59 100 SW5       29.61F VSB 1
HIBBING        CLOUDY    63  61  93 S3        29.61F
ALEXANDRIA     CLEAR     66  63  90 SW8       29.67F
SAINT CLOUD    FOG       60  59  96 CALM      29.64F VSB 1/4
MINNEAPOLIS    PTCLDY    73  66  78 SW6       29.66F
$$

  *****  WEATHER ACROSS SOUTH DAKOTA  *****

CITY           SKY/WX    TMP DP  RH WIND       PRES   REMARKS
SIOUX FALLS    CLOUDY    72  65  78 NW6       29.73R
BROOKINGS      NOT AVBL
WATERTOWN      CLEAR     67  60  78 W8        29.73S
HURON          CLEAR     62  55  77 NW6       29.74S
SISSETON         N/A     72  54  53 W13       29.68R
ABERDEEN       CLOUDY    70  53  54 NW9       29.74R
MITCHELL       CLEAR     68  59  73 W5        29.75R
PIERRE         MOCLDY    72  52  49 NW13      29.80R
MOBRIDGE       MOCLDY    65  54  67 N6        29.79R
RAPID CITY     PTCLDY    67  48  50 NW8       29.96R
$$

  *****  SOME WEATHER IN NEARBY STATES *****

CITY           SKY/WX    TMP DP  RH WIND       PRES   REMARKS
GLASGOW MT     CLEAR     61  51  70 CALM      29.85R
GREAT FALLS MT CLEAR     56  40  55 SW8       30.02R
CHEYENNE WY    MOCLDY    68  41  37 NW3       30.11R
SCOTTSBLUFF NE PTCLDY    65  51  60 NW3       29.96R
OMAHA NE       PTCLDY    75  68  78 S17       29.81S
DES MOINES IA  PTCLDY    70  66  87 S16       29.83F
DAVENPORT IA   CLEAR     67  55  65 S18       29.92S
CHICAGO IL     PTCLDY    66  47  50 S14       29.95S
EAU CLAIRE WI  CLOUDY    68  62  81 SW10      29.71F
LA CROSSE WI   PTCLDY    70  59  68 S16G28    29.76F
$$

  *****  SOME NATIONAL WEATHER *****

CITY           SKY/WX    TMP DP  RH WIND       PRES   REMARKS
LA GUARDIA NY  PTCLDY    60  47  61 SE13      30.35F
RALEIGH NC     CLEAR     66  57  72 E8        30.25R
ATLANTA GA     PTCLDY    71  65  81 E12       30.15R
NEW ORLEANS LA CLEAR     79  67  66 E7        29.97R
OKLAHOMA CITY  PTCLDY    74  66  76 SE9       29.98S
ALBUQUERQUE NM PTCLDY    71  56  58 SE5       30.08R
SALT LAKE CITY PTCLDY    67  55  65 E3        30.06R
LOS ANGELES CA CLEAR     68  62  81 W9        29.88R
BOISE ID       CLEAR     69  45  41 CALM      30.03R
SEATTLE WA     PTCLDY    65  56  72 N8        30.10R
$$

*** WEATHER ACROSS MANITOBA...SASKATCHEWAN AND ONTARIO ***
                ***ONTARIO***

CITY           SKY/WX    TMP DP  RH WIND       PRES   REMARKS
GERALDTON      LGT RAIN  54  54 100 SW8       29.54S FOG
THUNDER BAY    PTCLDY    59  57  94 SW3       29.58S
SIOUX LOOKOUT  LGT RAIN  61  61 100 NW3       29.53F FOG
TORONTO        PTCLDY    54  48  82 CALM      30.08F
BIG TROUT LK   CLOUDY    46  43  87 N5        29.55R
PICKLE LAKE    NOT AVBL
DRYDEN         LGT RAIN  59  59 100 W10       29.54S
KENORA         CLOUDY    61  59  94 NW10      29.57S FOG
$$
                *** MANITOBA***

CITY           SKY/WX    TMP DP  RH WIND       PRES   REMARKS
BRANDON        CLOUDY    55  54  94 E5        29.74R
DAUPHIN        CLOUDY    54  52  94 SW3       29.72S
ISLAND LAKE    CLOUDY    46  45  93 N8        29.64R
PILOT MOUND    NOT AVBL
THE PAS        CLOUDY    52  48  87 SE5       29.64S
THOMPSON       MOCLDY    30  30 100 CALM      29.65S
WINNIPEG       CLOUDY    55  52  88 N8        29.70R
LYNN LAKE      CLOUDY    41  37  87 E5        29.62S
CHURCHILL      CLOUDY    39  34  81 N18G28    29.61
GILLAM         MOCLDY    45  37  76 NW12      29.62S
$$
                ***SASKATCHEWAN***

CITY           SKY/WX    TMP DP  RH WIND       PRES   REMARKS
ESTEVAN        CLEAR     54  50  87 W6        29.80R
KINDERSLEY     TSTM      55  50  82 NE12G21   29.80F
LLOYDMINSTER   PTCLDY    54  43  66 W12       29.73R
PRINCE ALBERT  MOCLDY    52  48  87 VRB2      29.66S
REGINA         PTCLDY    52  48  87 SW8       29.77R


USA.gov is the U.S. government's official web portal to all federal, state and local government web resources and services.